STARLINK-35463

Last updated on Tue Dec 16 2025 00:02:05 GMT+0000 (Coordinated Universal Time)

1 66463U 25262H 25349.22294129 .00049895 00000+0 11915-2 0 9999 2 66463 43.0004 57.0626 0001681 254.9708 105.0963 15.40760159 5945
UTC large
Height (km)
Speed (km/s)
/
Latitude / Longitude
Inclination (degrees)
Orbital Period (minutes)
Azimuth
Elevation
Range (km)
Doppler Factor

Next 0 passes for location: London (51.5072 / 0.1276)

Sorry there are no passes over London.